Location: Asarope
(8.2500°N, 4.4833°E)
Time: 21:44:34
(UTC+00:00)

Cosmos 2123 Rocket - Pass Details

Date: 07 June 2020
Orbit: 961 x 992 km, 82.9° (Epoch: 10 July)

Event Time Altitude Azimuth Distance (km) Brightness Sun altitude
Rises 04:21:06 0° 358° (N) 3,666 7.3 -14.8°
Reaches altitude 10° 04:23:37 10° 359° (N) 2,714 6.7 -14.3°
Maximum altitude 04:29:50 84° 86° (E) 977 4.1 -12.9°
Drops below altitude 10° 04:36:01 10° 175° (S) 2,697 6.1 -11.5°
Sets 04:38:31 0° 175° (S) 3,641 6.8 -11.0°
